Location: Pontbriand
(46.1542°N, 71.2542°W)
Time: 16:19:20
(UTC+00:00)

Envisat - Pass Details

Date: 04 October 2022
Orbit: 763 x 765 km, 98.2° (Epoch: 30 November)

Event Time Altitude Azimuth Distance (km) Brightness Sun altitude
Rises 08:21:26 0° 22° (NNE) 3,244 6.9 -25.6°
Reaches altitude 10° 08:24:00 10° 33° (NNE) 2,313 6.2 -25.2°
Maximum altitude 08:28:31 31° 95° (E) 1,312 4.7 -24.5°
Drops below altitude 10° 08:33:00 10° 158° (SSE) 2,296 5.5 -23.7°
Sets 08:35:32 0° 168° (SSE) 3,217 6.2 -23.3°
